Aspen, CO

4:07 AM MST on January 18, 2018 (GMT -0700)
Aspen-Pitkin County / Sardy Field

Weather History for KASE - October, 2013

Change the Weather History Date:

Tuesday, October 15, 2013

  Actual Average Record
Temperature  
Mean Temperature 37 °F 43 °F  
Max Temperature 43 °F 57 °F 73 °F (2011)
Min Temperature 30 °F 28 °F 16 °F (2017)
Degree Days  
Heating Degree Days 28 22  
Month to date heating degree days 344 298  
Since 1 July heating degree days 764 845  
Cooling Degree Days 0 0  
Month to date cooling degree days 0 0  
Year to date cooling degree days 69 39  
Moisture  
Dew Point 30 °F    
Average Humidity 82    
Maximum Humidity 100    
Minimum Humidity 64    
Precipitation  
Precipitation 0.00 in 0.04 in 0.50 in (1983)
Month to date precipitation 0.46 0.75  
Year to date precipitation 13.10 14.03  
Sea Level Pressure  
Sea Level Pressure 30.11 in    
Wind  
Wind Speed 3 mph (NNW)    
Max Wind Speed 12 mph    
Max Gust Speed 15 mph    
Visibility 8 miles    
Events Snow    
T = Trace of Precipitation, MM = Missing Value Source: NWS Daily Summary

Daily Weather History Graph

Daily Weather History Graph

Search for Another Location

Airport or City:

Trip Planner

Search our weather history database for the weather conditions in past years. The results will help you decide how hot, cold, wet, or windy it might be!

Date:

Astronomy

Oct. 15, 2013 Rise Set
Actual Time 7:17 AM MDT 6:28 PM MDT
Civil Twilight 6:50 AM MDT 6:55 PM MDT
Nautical Twilight 6:19 AM MDT 7:26 PM MDT
Astronomical Twilight 5:48 AM MDT 7:57 PM MDT
Moon 4:34 PM MDT (10/15) 3:44 AM MDT (10/15)
Length of Visible Light 12h 04m
Length of Day
11h 10m
Waxing Gibbous, 88% of the Moon is Illuminated
Oct 15
Waxing Gibbous
Oct 18
Full
Oct 26
Last Quarter
Nov 3
New
Nov 9
First Quarter

Hourly Weather History & Observations

Time (MDT) Temp. Windchill Dew Point Humidity Pressure Visibility Wind Dir Wind Speed Gust Speed Precip Events Conditions
12:43 AM 32.0 °F - 32.0 °F 100% 30.19 in 8.0 mi Calm Calm - N/A Snow Light Snow
12:53 AM 33.1 °F - 32.0 °F 96% 30.07 in 9.0 mi Calm Calm - N/A Snow Light Snow
1:36 AM 32.0 °F - 32.0 °F 100% 30.18 in 9.0 mi Calm Calm - N/A   Overcast
1:53 AM 32.0 °F - 32.0 °F 100% 30.09 in 10.0 mi Calm Calm - N/A Snow Light Snow
2:05 AM 33.8 °F - 32.0 °F 93% 30.18 in 9.0 mi Calm Calm - N/A   Overcast
2:36 AM 33.8 °F - 32.0 °F 93% 30.18 in 10.0 mi Calm Calm - N/A   Overcast
2:53 AM 33.1 °F - 32.0 °F 96% 30.07 in 7.0 mi Calm Calm - N/A Snow Light Snow
3:38 AM 32.0 °F - 32.0 °F 100% 30.17 in 6.0 mi Calm Calm - N/A Snow Light Snow
3:53 AM 32.0 °F 28.7 °F 32.0 °F 100% 30.10 in 6.0 mi North 3.5 mph - N/A Snow Light Snow
4:20 AM 32.0 °F 28.7 °F 32.0 °F 100% 30.17 in 3.0 mi North 3.5 mph - N/A Snow Light Snow
4:29 AM 32.0 °F 28.7 °F 32.0 °F 100% 30.17 in 2.0 mi NNW 3.5 mph - N/A Snow Light Snow
4:46 AM 32.0 °F 28.7 °F 32.0 °F 100% 30.17 in 5.0 mi North 3.5 mph - N/A Snow Light Snow
4:53 AM 32.0 °F 27.5 °F 32.0 °F 100% 30.08 in 7.0 mi North 4.6 mph - N/A Snow Light Snow
5:20 AM 32.0 °F 27.5 °F 32.0 °F 100% 30.17 in 10.0 mi North 4.6 mph - N/A   Overcast
5:53 AM 30.9 °F 27.5 °F 30.9 °F 100% 30.08 in 10.0 mi North 3.5 mph - N/A   Overcast
6:04 AM 30.2 °F - 30.2 °F 100% 30.18 in 10.0 mi Calm Calm - N/A   Overcast
6:22 AM 30.2 °F - 30.2 °F 100% 30.18 in 10.0 mi Calm Calm - N/A   Overcast
6:53 AM 30.0 °F 25.2 °F 28.0 °F 92% 30.12 in 3.0 mi SE 4.6 mph - N/A Snow Light Snow
6:57 AM 30.2 °F 23.4 °F 28.4 °F 93% 30.18 in 3.0 mi SE 6.9 mph - N/A Snow Light Snow
7:53 AM 30.0 °F 25.2 °F 27.0 °F 88% 30.12 in 4.0 mi South 4.6 mph - N/A Snow Light Snow
8:53 AM 30.0 °F 26.5 °F 28.0 °F 92% 30.14 in 4.0 mi SW 3.5 mph - N/A Snow Light Snow
9:00 AM 30.2 °F - 28.4 °F 93% 30.20 in 3.0 mi Calm Calm - N/A Snow Light Snow
9:53 AM 32.0 °F - 30.9 °F 96% 30.12 in 6.0 mi Calm Calm - N/A Snow Light Snow
10:53 AM 36.0 °F 31.1 °F 30.0 °F 79% 30.08 in 10.0 mi NNW 5.8 mph - N/A   Mostly Cloudy
11:53 AM 37.9 °F - 28.0 °F 68% 30.05 in - North - - N/A   Overcast
12:53 PM 39.0 °F 34.0 °F 28.9 °F 67% 30.03 in 10.0 mi NNW 6.9 mph - N/A   Overcast
1:53 PM 39.0 °F 33.4 °F 28.0 °F 65% 30.02 in 10.0 mi NW 8.1 mph - N/A   Overcast
2:53 PM 37.0 °F 31.0 °F 28.9 °F 73% 30.02 in 10.0 mi West 8.1 mph - 0.00 in   Overcast
3:22 PM 37.4 °F 32.1 °F 28.4 °F 70% 30.12 in 6.0 mi Variable 6.9 mph - 0.00 in Snow Light Snow
3:53 PM 37.0 °F 31.6 °F 27.0 °F 67% 30.03 in 7.0 mi NW 6.9 mph - 0.00 in   Mostly Cloudy
4:53 PM 36.0 °F 31.1 °F 28.9 °F 76% 30.04 in 10.0 mi North 5.8 mph - N/A   Mostly Cloudy
5:53 PM 36.0 °F - 28.9 °F 76% 30.04 in 10.0 mi Calm Calm - N/A   Mostly Cloudy
6:53 PM 35.1 °F - 28.9 °F 78% 30.07 in 10.0 mi Calm Calm - N/A   Mostly Cloudy
7:53 PM 34.0 °F - 28.9 °F 82% 30.09 in 10.0 mi Calm Calm - N/A   Overcast
8:53 PM 33.1 °F - 30.0 °F 89% 30.08 in 10.0 mi Calm Calm - N/A   Overcast
9:27 PM 33.8 °F - 28.4 °F 81% 30.16 in 10.0 mi Calm Calm - N/A   Mostly Cloudy
9:51 PM 33.8 °F 30.8 °F 28.4 °F 81% 30.15 in 10.0 mi North 3.5 mph - N/A   Overcast
9:53 PM 32.0 °F 28.7 °F 28.9 °F 88% 30.08 in 10.0 mi North 3.5 mph - N/A   Overcast
10:44 PM 32.0 °F 28.7 °F 30.2 °F 93% 30.14 in 10.0 mi NNW 3.5 mph - N/A   Overcast
10:53 PM 32.0 °F 27.5 °F 30.0 °F 92% 30.06 in 10.0 mi North 4.6 mph - N/A   Overcast
11:53 PM 33.1 °F - 28.9 °F 85% 30.03 in 10.0 mi Calm Calm - N/A   Overcast